sat.trackr.live / text

‹ back to catalog

STARLINK-5655

NORAD 55336 · 2023-013F

PAYLOAD ACTIVE UNKNOWN

§ Identity

Operator
Country
US
Launch date
2023-01-26
Launch site
AFETR
Launch vehicle
Mass (kg)
RCS (m²)

Purposes: comms

External: N2YO · Heavens-Above · Gunter

§ Orbital elements

Epoch: 2026-09-20T11:37:07.820256Z

Period
94.27 min
Inclination
43.0025°
Eccentricity
0.0001312
Mean motion
15.27574494 rev/d
Perigee alt
482.2 km
Apogee alt
484.0 km
Semi-major
6,861.2 km
B*
4.6418e-6
RAAN
268.6012°
Arg perigee
253.4821°
Mean anomaly
106.5887°
Rev number
20,163

§ Raw data

STARLINK-56551 55336U 23013F   26263.48411829 -.00000134  00000+0  46418-5 0  99932 55336  43.0025 268.6012 0001312 253.4821 106.5887 15.27574494201630

JSON: /api/v1/satellites/55336 · /tle

For live sub-satellite position, see the globe view (requires WebGL).

§ Visibility from observer

Set your observer location to see the next 7 days of passes ≥ 10°. The values pass through the URL so the page stays shareable.

No JS? Fill the form by hand. The geolocation button needs JavaScript.